Погода в Верхних Белозерках

Россия / Самарская область     53°43′42″N   49°10′13″E
темп.,
°C
ветер,
м/с
пор.,
м/с
влажн.,
%
обл.,
%
осадки,
мм/ч
давл.,
гПа
погр.,
м
13 апреля, вт
вт1301:00+8в239267 0.0 103550
04:00+8юв11925 0.0 103512
07:00+8юв119171 0.0 103513
10:00+13ю247189 0.0 1035354
13:00+16ююв345270 0.0 1034768
16:00+17ююв355011 0.0 1033971
19:00+15юв226313 0.0 103126
22:00+12юв34685 0.0 103243
14 апреля, ср
ср1401:00+9ююв33735 0.0 103129
04:00+8юв33725 0.0 103122
07:00+8юв33815 0.0 103056
10:00+12юв35725 0.0 1029438
13:00+16юв46545 0.0 1028841
16:00+17юв45513 0.0 10261026
19:00+15вюв36655 0.0 102496
22:00+12юв35770 0.0 102478
15 апреля, чт
чт1501:00+10юв33830 0.0 102333
04:00+9юв22870 0.0 102318
07:00+8юв22820 0.0 102225
10:00+13ююв23604 0.0 1021371
13:00+16ю24484 0.0 1020897
16:00+17ююз23470 0.0 10191070
19:00+13с22620 0.0 101832
22:00+12св226437 0.0 101817
16 апреля, пт
пт1601:00+11ссв116997 0.0 101711
04:00+10с1175100 0.0 101611
07:00+9с227876 0.0 101620
10:00+13с236461 0.0 1016297
13:00+16с445426 0.0 1016864
16:00+14ссз466255 0.0 1016194
19:00+13с510655 0.0 1016284
22:00+9ссв511825 0.0 1018356
17 апреля, сб
сб1701:00+7ссв611825 0.0 1019390
04:00+6ссв510825 0.0 1020345
07:00+5ссв510765 0.0 1022418
10:00+8ссв710500 0.0 1022933
13:00+10ссв79381 0.0 10231395
16:00+10ссв810374 0.0 10241548
19:00+7ссв711420 0.0 10261115
22:00+4ссв713450 0.0 1028605